When you browse on this site, cookies collect data to enhance your experience and personalize the content and advertising you see.
Visit our Privacy Policy to learn more. By continuing to use the site, you agree to this use of cookies and data.
  • En España
  • Lista de países
  • Para 7 días
  • Temperatura del agua
  • El tiempo en el mapa
  • Informadores
  • user-avatar
    Iniciar sesión

    Tiempo cada hora Viedma

    Hoy, 5 Diciembre, Jueves

    Tiempo Temperatura Precipitaciones Viento Presión Humedad
    00:00 +12°C° 0 mm 3 mps 756 mmHg 66%
    01:00 +12°C° 0 mm 3 mps 756 mmHg 64%
    02:00 +12°C° 0 mm 3 mps 755 mmHg 65%
    03:00 +12°C° 0 mm 3 mps 755 mmHg 63%
    04:00 +12°C° 0 mm 3 mps 755 mmHg 61%
    05:00 +12°C° 0 mm 3 mps 754 mmHg 59%
    06:00 +15°C° 0 mm 4 mps 754 mmHg 50%
    07:00 +17°C° 0 mm 5 mps 754 mmHg 42%
    08:00 +21°C° 0 mm 5 mps 754 mmHg 34%
    09:00 +23°C° 0 mm 5 mps 753 mmHg 30%
    10:00 +26°C° 0 mm 6 mps 753 mmHg 27%
    11:00 +28°C° 0 mm 6 mps 752 mmHg 24%
    12:00 +28°C° 0 mm 7 mps 752 mmHg 24%
    13:00 +28°C° 0 mm 8 mps 752 mmHg 25%
    14:00 +28°C° 0 mm 9 mps 752 mmHg 25%
    15:00 +26°C° 0 mm 8 mps 752 mmHg 28%
    16:00 +24°C° 0 mm 8 mps 752 mmHg 32%
    17:00 +23°C° 0 mm 8 mps 752 mmHg 35%
    18:00 +21°C° 0 mm 6 mps 752 mmHg 39%
    19:00 +19°C° 0 mm 4 mps 753 mmHg 44%
    20:00 +17°C° 0 mm 3 mps 753 mmHg 49%
    21:00 +17°C° 0 mm 2 mps 753 mmHg 51%
    22:00 +16°C° 0 mm 2 mps 753 mmHg 53%
    23:00 +15°C° 0 mm 1 mps 753 mmHg 54%

    Mañana, 6 Diciembre, Viernes

    Tiempo Temperatura Precipitaciones Viento Presión Humedad
    00:00 +15°C° 0 mm 2 mps 754 mmHg 54%
    01:00 +15°C° 0 mm 2 mps 754 mmHg 54%
    02:00 +14°C° 0 mm 3 mps 754 mmHg 53%
    03:00 +14°C° 0 mm 4 mps 755 mmHg 56%
    04:00 +14°C° 0 mm 5 mps 756 mmHg 59%
    05:00 +14°C° 0 mm 5 mps 756 mmHg 62%
    06:00 +15°C° 0 mm 6 mps 757 mmHg 55%
    07:00 +16°C° 0 mm 7 mps 758 mmHg 48%
    08:00 +17°C° 0 mm 8 mps 758 mmHg 40%
    09:00 +18°C° 0 mm 8 mps 759 mmHg 37%
    10:00 +18°C° 0 mm 9 mps 759 mmHg 34%
    11:00 +19°C° 0 mm 9 mps 759 mmHg 31%
    12:00 +21°C° 0 mm 9 mps 759 mmHg 30%
    13:00 +21°C° 0 mm 9 mps 759 mmHg 30%
    14:00 +21°C° 0 mm 8 mps 759 mmHg 30%
    15:00 +21°C° 0 mm 8 mps 759 mmHg 33%
    16:00 +20°C° 0 mm 8 mps 759 mmHg 35%
    17:00 +18°C° 0 mm 7 mps 759 mmHg 38%
    18:00 +17°C° 0 mm 6 mps 759 mmHg 44%
    19:00 +15°C° 0 mm 4 mps 759 mmHg 50%
    20:00 +14°C° 0 mm 3 mps 759 mmHg 56%
    21:00 +14°C° 0 mm 2 mps 759 mmHg 59%
    22:00 +14°C° 0 mm 2 mps 759 mmHg 62%
    23:00 +13°C° 0 mm 2 mps 759 mmHg 65%

    Pasado mañana, 7 Diciembre, Sábado

    Tiempo Temperatura Precipitaciones Viento Presión Humedad
    00:00 +13°C° 0 mm 1 mps 759 mmHg 66%
    01:00 +13°C° 0 mm 1 mps 758 mmHg 68%
    02:00 +12°C° 0 mm 1 mps 758 mmHg 70%
    03:00 +12°C° 0 mm 1 mps 758 mmHg 69%
    04:00 +12°C° 0 mm 1 mps 758 mmHg 68%
    05:00 +12°C° 0 mm 1 mps 758 mmHg 67%
    06:00 +14°C° 0 mm 2 mps 758 mmHg 58%
    07:00 +17°C° 0 mm 2 mps 758 mmHg 49%
    08:00 +19°C° 0 mm 3 mps 758 mmHg 40%
    09:00 +21°C° 0 mm 4 mps 757 mmHg 35%
    10:00 +23°C° 0 mm 5 mps 757 mmHg 30%
    11:00 +26°C° 0 mm 6 mps 757 mmHg 25%
    12:00 +27°C° 0 mm 5 mps 756 mmHg 24%
    13:00 +28°C° 0 mm 5 mps 755 mmHg 23%
    14:00 +30°C° 0 mm 5 mps 754 mmHg 22%
    15:00 +29°C° 0 mm 5 mps 754 mmHg 25%
    16:00 +28°C° 0 mm 5 mps 753 mmHg 28%
    17:00 +27°C° 0 mm 6 mps 752 mmHg 31%
    18:00 +23°C° 0 mm 6 mps 753 mmHg 40%
    19:00 +20°C° 0 mm 6 mps 753 mmHg 49%
    20:00 +17°C° 0 mm 6 mps 754 mmHg 59%
    21:00 +16°C° 0 mm 6 mps 754 mmHg 63%
    22:00 +15°C° 0 mm 5 mps 754 mmHg 68%
    23:00 +15°C° 0 mm 5 mps 755 mmHg 72%

    8 Diciembre, Domingo

    Tiempo Temperatura Precipitaciones Viento Presión Humedad
    00:00 +14°C° 0 mm 4 mps 755 mmHg 75%
    01:00 +14°C° 0 mm 4 mps 755 mmHg 78%
    02:00 +14°C° 0 mm 3 mps 754 mmHg 80%
    03:00 +13°C° 0 mm 3 mps 754 mmHg 83%
    04:00 +14°C° 0 mm 2 mps 755 mmHg 85%
    05:00 +14°C° 0 mm 2 mps 755 mmHg 88%
    06:00 +16°C° 0 mm 2 mps 755 mmHg 76%
    07:00 +19°C° 0 mm 1 mps 755 mmHg 65%
    08:00 +21°C° 0 mm 1 mps 755 mmHg 54%
    09:00 +24°C° 0 mm 1 mps 754 mmHg 43%
    10:00 +27°C° 0 mm 1 mps 754 mmHg 33%
    11:00 +29°C° 0 mm 1 mps 754 mmHg 23%
    12:00 +30°C° 0 mm 2 mps 754 mmHg 21%
    13:00 +31°C° 0 mm 3 mps 753 mmHg 20%
    14:00 +33°C° 0 mm 4 mps 752 mmHg 18%
    15:00 +33°C° 0 mm 5 mps 752 mmHg 18%
    16:00 +33°C° 0 mm 5 mps 751 mmHg 19%
    17:00 +32°C° 0 mm 5 mps 751 mmHg 19%
    18:00 +29°C° 0 mm 5 mps 751 mmHg 25%
    19:00 +26°C° 0 mm 5 mps 751 mmHg 31%
    20:00 +22°C° 0 mm 5 mps 751 mmHg 38%
    21:00 +22°C° 0 mm 5 mps 751 mmHg 39%
    22:00 +21°C° 0 mm 5 mps 751 mmHg 41%
    23:00 +21°C° 0 mm 5 mps 751 mmHg 42%

    9 Diciembre, Lunes

    Tiempo Temperatura Precipitaciones Viento Presión Humedad
    00:00 +21°C° 0 mm 5 mps 751 mmHg 42%
    01:00 +20°C° 0 mm 5 mps 750 mmHg 41%
    02:00 +20°C° 0 mm 5 mps 750 mmHg 41%
    03:00 +20°C° 0 mm 5 mps 750 mmHg 42%
    04:00 +20°C° 0 mm 6 mps 750 mmHg 43%
    05:00 +20°C° 0 mm 6 mps 749 mmHg 43%
    06:00 +23°C° 0 mm 7 mps 749 mmHg 35%
    07:00 +27°C° 0 mm 7 mps 749 mmHg 26%
    08:00 +31°C° 0 mm 8 mps 749 mmHg 17%
    09:00 +31°C° 0 mm 8 mps 749 mmHg 20%
    10:00 +31°C° 0 mm 8 mps 749 mmHg 22%
    11:00 +31°C° 0 mm 8 mps 749 mmHg 25%
    12:00 +31°C° 0 mm 8 mps 749 mmHg 23%
    13:00 +30°C° 0 mm 7 mps 749 mmHg 22%
    14:00 +30°C° 0 mm 7 mps 749 mmHg 20%
    15:00 +30°C° 0 mm 6 mps 749 mmHg 20%
    16:00 +30°C° 0 mm 4 mps 750 mmHg 20%
    17:00 +30°C° 0 mm 3 mps 750 mmHg 20%
    18:00 +28°C° 0 mm 3 mps 750 mmHg 25%
    19:00 +25°C° 0 mm 4 mps 750 mmHg 30%
    20:00 +22°C° 0 mm 5 mps 750 mmHg 35%
    21:00 +21°C° 0 mm 4 mps 750 mmHg 39%
    22:00 +20°C° 0 mm 4 mps 751 mmHg 42%
    23:00 +20°C° 0 mm 4 mps 752 mmHg 46%

    10 Diciembre, Martes

    Tiempo Temperatura Precipitaciones Viento Presión Humedad
    00:00 +19°C° 0 mm 3 mps 752 mmHg 47%
    01:00 +19°C° 0 mm 2 mps 752 mmHg 48%
    02:00 +19°C° 0 mm 1 mps 753 mmHg 49%
    03:00 +18°C° 0 mm 2 mps 753 mmHg 48%
    04:00 +18°C° 0 mm 3 mps 754 mmHg 47%
    05:00 +18°C° 0 mm 3 mps 754 mmHg 47%
    06:00 +20°C° 0 mm 5 mps 754 mmHg 43%
    07:00 +22°C° 0 mm 6 mps 755 mmHg 38%
    08:00 +23°C° 0 mm 7 mps 755 mmHg 34%
    09:00 +24°C° 0 mm 7 mps 755 mmHg 34%
    10:00 +24°C° 0 mm 6 mps 756 mmHg 33%
    11:00 +26°C° 0 mm 5 mps 756 mmHg 33%
    12:00 +26°C° 0 mm 5 mps 756 mmHg 32%
    13:00 +26°C° 0 mm 5 mps 756 mmHg 31%
    14:00 +27°C° 0 mm 5 mps 756 mmHg 31%
    15:00 +26°C° 0 mm 5 mps 755 mmHg 30%
    16:00 +26°C° 0 mm 4 mps 755 mmHg 30%
    17:00 +26°C° 0 mm 4 mps 755 mmHg 30%
    18:00 +23°C° 0 mm 4 mps 755 mmHg 40%
    19:00 +21°C° 0 mm 4 mps 755 mmHg 50%
    20:00 +17°C° 0 mm 5 mps 755 mmHg 61%
    21:00 +17°C° 0 mm 5 mps 755 mmHg 65%
    22:00 +16°C° 0 mm 5 mps 754 mmHg 69%
    23:00 +16°C° 0 mm 6 mps 754 mmHg 73%
    Mostrar más